Location: Newark
(34.3481°N, 134.0494°E)
Time: 01:36:21
(UTC+00:00)

Transit 2A - All Passes

Search period start: 23 January 2020 00:00
Search period end: 02 February 2020 00:00
Orbit: 601 x 958 km, 66.7° (Epoch: 22 January)

Date Brightness Start Highest point End Pass type
(mag) Time Alt. Az. Time Alt. Az. Time Alt. Az.
23 Jan - 10:34:43 10° S 10:39:03 45° ESE 10:43:12 10° NE visible
23 Jan - 12:19:49 10° W 12:22:21 15° NW 12:24:52 10° NNW night (unlit)
23 Jan - 19:24:22 10° N 19:27:49 19° NE 19:31:27 10° E visible
23 Jan - 21:06:19 10° NW 21:11:05 49° WSW 21:16:21 10° S visible
24 Jan - 10:01:12 10° SSE 10:05:01 27° ESE 10:08:43 10° NE visible
24 Jan - 11:44:32 10° WSW 11:48:04 23° NW 11:51:32 10° N visible
24 Jan - 18:51:18 10° NNE 18:53:29 13° NE 18:55:43 10° ENE visible
24 Jan - 20:32:04 10° NNW 20:37:00 76° WSW 20:42:29 10° SSE visible
25 Jan - 09:28:09 10° SSE 09:31:02 17° ESE 09:33:50 10° ENE visible
25 Jan - 11:09:44 10° SW 11:13:50 35° WNW 11:17:51 10° N visible
25 Jan - 19:57:59 10° NNW 20:02:54 70° ENE 20:08:20 10° SSE visible
25 Jan - 21:43:49 10° W 21:45:37 12° WSW 21:47:28 10° SW daylight
26 Jan - 10:35:16 10° SW 10:39:41 58° WNW 10:43:58 10° NNE visible
26 Jan - 19:24:01 10° NNW 19:28:45 45° ENE 19:33:56 10° SE visible
26 Jan - 21:08:07 10° WNW 21:11:39 19° WSW 21:15:23 10° SSW visible
27 Jan - 10:01:03 10° SSW 10:05:34 85° ESE 10:09:54 10° NNE visible
27 Jan - 18:50:13 10° N 18:54:34 30° ENE 18:59:16 10° ESE visible
27 Jan - 20:33:17 10° NW 20:37:37 29° WSW 20:42:20 10° SSW visible
28 Jan - 09:27:08 10° S 09:31:29 50° ESE 09:35:42 10° NE visible
28 Jan - 11:12:38 10° W 11:14:51 14° NW 11:17:04 10° NNW visible
28 Jan - 18:16:37 10° N 18:20:19 21° NE 18:24:16 10° ESE visible
28 Jan - 19:58:48 10° NW 20:03:34 45° WSW 20:08:49 10° S visible
29 Jan - 08:53:32 10° S 08:57:27 30° ESE 09:01:15 10° NE visible
29 Jan - 10:37:12 10° WSW 10:40:32 21° NW 10:43:51 10° N visible
29 Jan - 17:43:24 10° NNE 17:46:00 14° NE 17:48:44 10° E visible
29 Jan - 19:24:30 10° NNW 19:29:29 70° WSW 19:35:00 10° SSE visible
30 Jan - 08:20:22 10° SSE 08:23:27 18° ESE 08:26:28 10° ENE daylight
30 Jan - 10:02:20 10° WSW 10:06:18 32° WNW 10:10:13 10° N visible
30 Jan - 18:50:23 10° NNW 18:55:23 77° ENE 19:00:55 10° SSE visible
30 Jan - 20:36:52 10° W 20:38:05 11° WSW 20:39:18 10° WSW visible
31 Jan - 07:48:20 10° ESE 07:49:30 11° ESE 07:50:39 10° E daylight
31 Jan - 09:27:47 10° SW 09:32:08 52° WNW 09:36:22 10° NNE visible
31 Jan - 18:16:24 10° NNW 18:21:14 50° ENE 18:26:35 10° SE visible
31 Jan - 20:00:45 10° WNW 20:04:06 18° WSW 20:07:40 10° SSW visible
01 Feb - 08:53:32 10° SSW 08:58:00 87° WNW 09:02:21 10° NNE visible
01 Feb - 17:42:34 10° N 17:47:04 33° ENE 17:51:58 10° ESE night (unlit)
01 Feb - 19:25:50 10° NW 19:30:05 27° WSW 19:34:43 10° SSW visible
